• In Austria
  • List of Countries
  • For 7 days
  • Water Temperature
  • Satellite Maps
  • Weather Map
  • News
  • Weather Widgets
  • user-avatar
    Login

    Hourly Weather Beziers

    Today, 19 July, Thursday

    Time Temperature Precipitation Wind Pressure Humidity
    00:00 +21°C° 0.1 mm 2 mps 755 mmHg 77%
    01:00 +21°C° 0 mm 2 mps 755 mmHg 76%
    02:00 +21°C° 0 mm 2 mps 755 mmHg 76%
    03:00 +21°C° 0 mm 2 mps 755 mmHg 76%
    04:00 +23°C° 0 mm 2 mps 755 mmHg 73%
    05:00 +23°C° 0 mm 2 mps 755 mmHg 71%
    06:00 +24°C° 0 mm 2 mps 755 mmHg 68%
    07:00 +27°C° 0 mm 2 mps 755 mmHg 58%
    08:00 +30°C° 0 mm 1 mps 755 mmHg 49%
    09:00 +33°C° 0 mm 1 mps 755 mmHg 39%
    10:00 +34°C° 0 mm 1 mps 755 mmHg 36%
    11:00 +36°C° 0 mm 2 mps 755 mmHg 33%
    12:00 +37°C° 0 mm 2 mps 755 mmHg 30%
    13:00 +37°C° 0 mm 3 mps 754 mmHg 30%
    14:00 +37°C° 0 mm 3 mps 754 mmHg 30%
    15:00 +37°C° 0 mm 4 mps 754 mmHg 30%
    16:00 +36°C° 0 mm 4 mps 754 mmHg 34%
    17:00 +34°C° 0 mm 4 mps 754 mmHg 38%
    18:00 +33°C° 0 mm 4 mps 753 mmHg 42%
    19:00 +30°C° 0 mm 3 mps 754 mmHg 47%
    20:00 +28°C° 0 mm 3 mps 754 mmHg 53%
    21:00 +26°C° 0 mm 2 mps 754 mmHg 58%
    22:00 +26°C° 0.1 mm 2 mps 754 mmHg 60%
    23:00 +25°C° 0.1 mm 2 mps 754 mmHg 62%

    Tomorrow, 20 July, Friday

    Time Temperature Precipitation Wind Pressure Humidity
    00:00 +25°C° 0.1 mm 1 mps 754 mmHg 64%
    01:00 +24°C° 0 mm 2 mps 754 mmHg 68%
    02:00 +24°C° 0 mm 2 mps 754 mmHg 72%
    03:00 +23°C° 0 mm 2 mps 754 mmHg 77%
    04:00 +24°C° 0.1 mm 3 mps 754 mmHg 77%
    05:00 +24°C° 0.1 mm 3 mps 754 mmHg 77%
    06:00 +24°C° 0.1 mm 3 mps 755 mmHg 77%
    07:00 +26°C° 0 mm 3 mps 755 mmHg 71%
    08:00 +28°C° 0 mm 3 mps 755 mmHg 64%
    09:00 +29°C° 0 mm 3 mps 755 mmHg 58%
    10:00 +30°C° 0 mm 3 mps 754 mmHg 55%
    11:00 +31°C° 0 mm 3 mps 754 mmHg 52%
    12:00 +33°C° 0 mm 3 mps 754 mmHg 49%
    13:00 +33°C° 0.2 mm 3 mps 754 mmHg 49%
    14:00 +33°C° 0.2 mm 4 mps 753 mmHg 48%
    15:00 +34°C° 0.2 mm 4 mps 753 mmHg 47%
    16:00 +33°C° 0.2 mm 4 mps 753 mmHg 51%
    17:00 +32°C° 0.2 mm 4 mps 753 mmHg 55%
    18:00 +30°C° 0.2 mm 4 mps 753 mmHg 58%
    19:00 +28°C° 0.1 mm 5 mps 753 mmHg 63%
    20:00 +26°C° 0.1 mm 6 mps 754 mmHg 69%
    21:00 +24°C° 0.1 mm 7 mps 754 mmHg 74%
    22:00 +23°C° 0.1 mm 7 mps 754 mmHg 76%
    23:00 +23°C° 0.1 mm 7 mps 754 mmHg 78%

    Day after tomorrow, 21 July, Saturday

    Time Temperature Precipitation Wind Pressure Humidity
    00:00 +22°C° 0.1 mm 7 mps 755 mmHg 80%
    01:00 +22°C° 0 mm 7 mps 755 mmHg 80%
    02:00 +21°C° 0 mm 6 mps 755 mmHg 80%
    03:00 +21°C° 0 mm 6 mps 755 mmHg 79%
    04:00 +21°C° 0 mm 6 mps 755 mmHg 77%
    05:00 +21°C° 0 mm 6 mps 755 mmHg 75%
    06:00 +21°C° 0 mm 6 mps 755 mmHg 74%
    07:00 +22°C° 0 mm 6 mps 755 mmHg 66%
    08:00 +24°C° 0 mm 6 mps 755 mmHg 58%
    09:00 +26°C° 0 mm 6 mps 755 mmHg 50%
    10:00 +27°C° 0 mm 7 mps 755 mmHg 47%
    11:00 +28°C° 0 mm 7 mps 755 mmHg 44%
    12:00 +29°C° 0 mm 7 mps 755 mmHg 41%
    13:00 +29°C° 0 mm 7 mps 755 mmHg 40%
    14:00 +30°C° 0 mm 7 mps 754 mmHg 39%
    15:00 +30°C° 0 mm 7 mps 754 mmHg 38%
    16:00 +29°C° 0 mm 7 mps 754 mmHg 41%
    17:00 +28°C° 0 mm 7 mps 754 mmHg 44%
    18:00 +27°C° 0 mm 7 mps 754 mmHg 48%
    19:00 +26°C° 0 mm 6 mps 755 mmHg 55%
    20:00 +24°C° 0 mm 6 mps 755 mmHg 62%
    21:00 +22°C° 0 mm 6 mps 756 mmHg 68%
    22:00 +22°C° 0 mm 6 mps 756 mmHg 71%
    23:00 +21°C° 0 mm 6 mps 756 mmHg 74%

    22 July, Sunday

    Time Temperature Precipitation Wind Pressure Humidity
    00:00 +20°C° 0 mm 6 mps 756 mmHg 76%
    01:00 +20°C° 0 mm 6 mps 756 mmHg 78%
    02:00 +19°C° 0 mm 6 mps 755 mmHg 79%
    03:00 +19°C° 0 mm 6 mps 755 mmHg 81%
    04:00 +19°C° 0 mm 6 mps 755 mmHg 79%
    05:00 +20°C° 0 mm 6 mps 755 mmHg 76%
    06:00 +20°C° 0 mm 7 mps 756 mmHg 74%
    07:00 +22°C° 0 mm 7 mps 755 mmHg 67%
    08:00 +24°C° 0 mm 7 mps 755 mmHg 60%
    09:00 +26°C° 0 mm 7 mps 755 mmHg 53%
    10:00 +28°C° 0 mm 7 mps 755 mmHg 50%
    11:00 +29°C° 0 mm 7 mps 755 mmHg 46%
    12:00 +30°C° 0 mm 7 mps 754 mmHg 43%
    13:00 +30°C° 0 mm 7 mps 754 mmHg 42%
    14:00 +32°C° 0 mm 7 mps 754 mmHg 41%
    15:00 +32°C° 0 mm 7 mps 754 mmHg 40%
    16:00 +30°C° 0 mm 7 mps 754 mmHg 43%
    17:00 +29°C° 0 mm 7 mps 754 mmHg 45%
    18:00 +29°C° 0 mm 7 mps 754 mmHg 48%
    19:00 +27°C° 0 mm 7 mps 755 mmHg 53%
    20:00 +26°C° 0 mm 6 mps 755 mmHg 58%
    21:00 +23°C° 0 mm 6 mps 756 mmHg 63%
    22:00 +22°C° 0 mm 6 mps 756 mmHg 67%
    23:00 +22°C° 0 mm 6 mps 756 mmHg 70%

    23 July, Monday

    Time Temperature Precipitation Wind Pressure Humidity
    00:00 +21°C° 0 mm 5 mps 756 mmHg 74%
    01:00 +20°C° 0 mm 5 mps 756 mmHg 76%
    02:00 +20°C° 0 mm 5 mps 755 mmHg 78%
    03:00 +19°C° 0 mm 5 mps 755 mmHg 80%
    04:00 +20°C° 0 mm 5 mps 755 mmHg 77%
    05:00 +20°C° 0 mm 5 mps 755 mmHg 75%
    06:00 +21°C° 0 mm 5 mps 755 mmHg 73%
    07:00 +25°C° 0 mm 4 mps 755 mmHg 63%
    08:00 +27°C° 0 mm 4 mps 755 mmHg 52%
    09:00 +29°C° 0 mm 4 mps 755 mmHg 42%
    10:00 +31°C° 0 mm 3 mps 754 mmHg 38%
    11:00 +34°C° 0 mm 2 mps 754 mmHg 33%
    12:00 +36°C° 0 mm 2 mps 753 mmHg 28%
    13:00 +36°C° 0 mm 2 mps 753 mmHg 27%
    14:00 +37°C° 0 mm 3 mps 753 mmHg 26%
    15:00 +37°C° 0 mm 3 mps 753 mmHg 25%
    16:00 +36°C° 0 mm 3 mps 753 mmHg 30%
    17:00 +34°C° 0 mm 4 mps 753 mmHg 35%
    18:00 +33°C° 0 mm 4 mps 753 mmHg 40%
    19:00 +29°C° 0 mm 3 mps 753 mmHg 47%
    20:00 +27°C° 0 mm 3 mps 753 mmHg 54%
    21:00 +25°C° 0 mm 2 mps 753 mmHg 61%
    22:00 +24°C° 0 mm 2 mps 753 mmHg 62%
    23:00 +24°C° 0 mm 2 mps 753 mmHg 63%

    24 July, Tuesday

    Time Temperature Precipitation Wind Pressure Humidity
    00:00 +24°C° 0 mm 2 mps 753 mmHg 64%
    01:00 +23°C° 0 mm 2 mps 753 mmHg 64%
    02:00 +23°C° 0 mm 2 mps 753 mmHg 65%
    03:00 +23°C° 0 mm 2 mps 753 mmHg 66%
    04:00 +24°C° 0 mm 2 mps 753 mmHg 64%
    05:00 +24°C° 0 mm 2 mps 753 mmHg 62%
    06:00 +25°C° 0 mm 2 mps 753 mmHg 60%
    07:00 +28°C° 0 mm 2 mps 753 mmHg 53%
    08:00 +30°C° 0 mm 2 mps 753 mmHg 46%
    09:00 +32°C° 0 mm 1 mps 753 mmHg 39%
    10:00 +34°C° 0 mm 2 mps 753 mmHg 36%
    11:00 +35°C° 0 mm 2 mps 753 mmHg 33%
    12:00 +36°C° 0 mm 3 mps 753 mmHg 30%
    13:00 +37°C° 0 mm 3 mps 753 mmHg 30%
    14:00 +37°C° 0 mm 4 mps 753 mmHg 29%
    15:00 +37°C° 0 mm 4 mps 752 mmHg 29%
    16:00 +36°C° 0 mm 4 mps 752 mmHg 33%
    17:00 +35°C° 0 mm 4 mps 752 mmHg 37%
    18:00 +34°C° 0 mm 4 mps 753 mmHg 41%
    19:00 +32°C° 0 mm 4 mps 753 mmHg 47%
    20:00 +29°C° 0 mm 4 mps 753 mmHg 53%
    21:00 +27°C° 0 mm 4 mps 754 mmHg 59%
    22:00 +26°C° 0 mm 4 mps 754 mmHg 61%
    23:00 +25°C° 0 mm 4 mps 754 mmHg 64%
    Show more